Погода в Сиваковке

Россия / Приморский край     44°28′45″N   132°22′10″E
темп.,
°C
ветер,
м/с
пор.,
м/с
влажн.,
%
обл.,
%
осадки,
мм/ч
давл.,
гПа
погр.,
м
27 января, ср
ср2701:00−7ссз479588 0.0 1016149
04:00−10зсз357992 0.1 101787
07:00−14зюз33780 0.0 101921
10:00−13з511780 0.0 1021248
13:00−10зсз610690 0.0 10221081
16:00−10з49740 0.0 1021958
19:00−15з33750 0.0 102320
22:00−17зсз34720 0.0 102528
28 января, чт
чт2801:00−19з12759 0.0 102520
04:00−20ю227811 0.0 102320
07:00−21ююв127946 0.0 102220
10:00−19всв118256 0.0 102030
13:00−15с3581100 0.0 1015250
16:00−14ссв71095100 1.7 1011443
19:00−14ссв91495100 2.4 1009600
22:00−14с101694100 4.8 1008712
29 января, пт
пт2901:00−16с111794100 2.4 1008753
04:00−17ссз121893100 3.9 1009834
07:00−19ссз101793100 0.7 1011880
10:00−20ссз101688100 0.9 1015879
13:00−20ссз101584100 0.2 1016934
16:00−19ссз81376100 0.2 1017979
19:00−21ссз61378100 0.0 1020458
22:00−26с348463 0.0 102239
30 января, сб
сб3001:00−28ссз22850 0.0 102420
04:00−30з11850 0.0 102619
07:00−30ююв22890 0.0 102619
10:00−29ююз119414 0.0 102721
13:00−24всв018899 0.0 1026209
16:00−22всв128576 0.0 1024179
19:00−27всв12880 0.0 102619
22:00−28з00860 0.0 102719
31 января, вс
вс3101:00−28з11820 0.0 102819
04:00−29ююз11811 0.0 102919
07:00−29ю11850 0.0 102919
10:00−26ю118628 0.0 102940
13:00−21юв118493 0.0 1028176
16:00−19вюв128572 0.0 1026137
19:00−24всв12870 0.0 102720
22:00−24ссв118828 0.0 102720